Zeit;wasserstand;wasserstand_status;abfluss;abfluss_status
2000-01-01 00:00:00;357.0;0;;1
2000-01-02 00:00:00;368.0;1;;1
2000-01-03 00:00:00;373.0;1;;1
2000-01-04 00:00:00;372.0;1;;1
2000-01-05 00:00:00;376.0;1;;1
2000-01-06 00:00:00;365.0;1;;1
2000-01-07 00:00:00;369.0;1;;1
2000-01-08 00:00:00;371.0;1;;1
2000-01-09 00:00:00;379.0;1;;1
2000-01-10 00:00:00;349.0;1;;1
2000-01-11 00:00:00;341.0;1;;1
2000-01-12 00:00:00;360.0;1;;1
2000-01-13 00:00:00;376.0;1;;1
2000-01-14 00:00:00;349.0;1;;1
2000-01-15 00:00:00;327.0;1;;1
2000-01-16 00:00:00;332.0;1;;1
2000-01-17 00:00:00;358.0;1;;1
2000-01-18 00:00:00;368.0;1;;1
2000-01-19 00:00:00;339.0;1;;1
2000-01-20 00:00:00;327.0;1;;1
2000-01-21 00:00:00;332.0;1;;1
2000-01-22 00:00:00;323.0;1;;1
2000-01-23 00:00:00;317.0;1;;1
2000-01-24 00:00:00;313.0;1;;1
2000-01-25 00:00:00;328.0;1;;1
2000-01-26 00:00:00;326.0;1;;1
2000-01-27 00:00:00;335.0;1;;1
2000-01-28 00:00:00;356.0;1;;1
2000-01-29 00:00:00;394.0;1;;1
2000-01-30 00:00:00;436.0;1;;1
2000-01-31 00:00:00;457.0;1;;1
2000-02-01 00:00:00;443.0;1;;1
2000-02-02 00:00:00;421.0;1;;1
2000-02-03 00:00:00;424.0;1;;1
2000-02-04 00:00:00;386.0;1;;1
2000-02-05 00:00:00;386.0;1;;1
2000-02-06 00:00:00;364.0;1;;1
2000-02-07 00:00:00;361.0;1;;1
2000-02-08 00:00:00;384.0;1;;1
2000-02-09 00:00:00;410.0;1;;1
2000-02-10 00:00:00;403.0;1;;1
2000-02-11 00:00:00;399.0;1;;1
2000-02-12 00:00:00;382.0;1;;1
2000-02-13 00:00:00;396.0;1;;1
2000-02-14 00:00:00;396.0;1;;1
2000-02-15 00:00:00;367.0;1;;1
2000-02-16 00:00:00;368.0;1;;1
2000-02-17 00:00:00;381.0;1;;1
2000-02-18 00:00:00;355.0;1;;1
2000-02-19 00:00:00;340.0;1;;1
2000-02-20 00:00:00;330.0;1;;1
2000-02-21 00:00:00;317.0;1;;1
2000-02-22 00:00:00;323.0;1;;1
2000-02-23 00:00:00;328.0;1;;1
2000-02-24 00:00:00;331.0;1;;1
2000-02-25 00:00:00;355.0;1;;1
2000-02-26 00:00:00;354.0;1;;1
2000-02-27 00:00:00;336.0;1;;1
2000-02-28 00:00:00;354.0;1;;1
2000-02-29 00:00:00;369.0;1;;1
2000-03-01 00:00:00;385.0;1;;1
2000-03-02 00:00:00;394.0;1;;1
2000-03-03 00:00:00;415.0;1;;1
2000-03-04 00:00:00;440.0;1;;1
2000-03-05 00:00:00;403.0;1;;1
2000-03-06 00:00:00;380.0;1;;1
2000-03-07 00:00:00;391.0;1;;1
2000-03-08 00:00:00;391.0;1;;1
2000-03-09 00:00:00;411.0;1;;1
2000-03-10 00:00:00;370.0;1;;1
2000-03-11 00:00:00;353.0;1;;1
2000-03-12 00:00:00;353.0;1;;1
2000-03-13 00:00:00;338.0;1;;1
2000-03-14 00:00:00;355.0;1;;1
2000-03-15 00:00:00;385.0;1;;1
2000-03-16 00:00:00;375.0;1;;1
2000-03-17 00:00:00;351.0;1;;1
2000-03-18 00:00:00;328.0;1;;1
2000-03-19 00:00:00;313.0;1;;1
2000-03-20 00:00:00;312.0;1;;1
2000-03-21 00:00:00;312.0;1;;1
2000-03-22 00:00:00;318.0;1;;1
2000-03-23 00:00:00;323.0;1;;1
2000-03-24 00:00:00;313.0;1;;1
2000-03-25 00:00:00;313.0;1;;1
2000-03-26 00:00:00;326.0;1;;1
2000-03-27 00:00:00;333.0;1;;1
2000-03-28 00:00:00;315.0;1;;1
2000-03-29 00:00:00;318.0;1;;1
2000-03-30 00:00:00;333.0;1;;1
2000-03-31 00:00:00;349.0;1;;1
2000-04-01 00:00:00;348.0;1;;1
2000-04-02 00:00:00;335.0;1;;1
2000-04-03 00:00:00;320.0;1;;1
2000-04-04 00:00:00;314.0;1;;1
2000-04-05 00:00:00;316.0;1;;1
2000-04-06 00:00:00;310.0;1;;1
2000-04-07 00:00:00;308.0;1;;1
2000-04-08 00:00:00;307.0;1;;1
2000-04-09 00:00:00;309.0;1;;1
2000-04-10 00:00:00;314.0;1;;1
2000-04-11 00:00:00;317.0;1;;1
2000-04-12 00:00:00;319.0;1;;1
2000-04-13 00:00:00;332.0;1;;1
2000-04-14 00:00:00;344.0;1;;1
2000-04-15 00:00:00;327.0;1;;1
2000-04-16 00:00:00;316.0;1;;1
2000-04-17 00:00:00;308.0;1;;1
2000-04-18 00:00:00;312.0;1;;1
2000-04-19 00:00:00;317.0;1;;1
2000-04-20 00:00:00;322.0;1;;1
2000-04-21 00:00:00;325.0;1;;1
2000-04-22 00:00:00;328.0;1;;1
2000-04-23 00:00:00;338.0;1;;1
2000-04-24 00:00:00;338.0;1;;1
2000-04-25 00:00:00;328.0;1;;1
2000-04-26 00:00:00;326.0;1;;1
2000-04-27 00:00:00;336.0;1;;1
2000-04-28 00:00:00;340.0;1;;1
2000-04-29 00:00:00;349.0;1;;1
2000-04-30 00:00:00;351.0;1;;1
2000-05-01 00:00:00;345.0;1;;1
2000-05-02 00:00:00;333.0;1;;1
2000-05-03 00:00:00;322.0;1;;1
2000-05-04 00:00:00;318.0;1;;1
2000-05-05 00:00:00;320.0;1;;1
2000-05-06 00:00:00;321.0;1;;1
2000-05-07 00:00:00;319.0;1;;1
2000-05-08 00:00:00;321.0;1;;1
2000-05-09 00:00:00;320.0;1;;1
2000-05-10 00:00:00;324.0;1;;1
2000-05-11 00:00:00;327.0;1;;1
2000-05-12 00:00:00;322.0;1;;1
2000-05-13 00:00:00;324.0;1;;1
2000-05-14 00:00:00;326.0;1;;1
2000-05-15 00:00:00;328.0;1;;1
2000-05-16 00:00:00;328.0;1;;1
2000-05-17 00:00:00;338.0;1;;1
2000-05-18 00:00:00;342.0;1;;1
2000-05-19 00:00:00;341.0;1;;1
2000-05-20 00:00:00;340.0;1;;1
2000-05-21 00:00:00;336.0;1;;1
2000-05-22 00:00:00;332.0;1;;1
2000-05-23 00:00:00;333.0;1;;1
2000-05-24 00:00:00;337.0;1;;1
2000-05-25 00:00:00;344.0;1;;1
2000-05-26 00:00:00;346.0;1;;1
2000-05-27 00:00:00;338.0;1;;1
2000-05-28 00:00:00;341.0;1;;1
2000-05-29 00:00:00;357.0;1;;1
2000-05-30 00:00:00;339.0;1;;1
2000-05-31 00:00:00;314.0;1;;1
2000-06-01 00:00:00;306.0;1;;1
2000-06-02 00:00:00;314.0;1;;1
2000-06-03 00:00:00;305.0;1;;1
2000-06-04 00:00:00;294.0;1;;1
2000-06-05 00:00:00;296.0;1;;1
2000-06-06 00:00:00;311.0;1;;1
2000-06-07 00:00:00;329.0;1;;1
2000-06-08 00:00:00;337.0;1;;1
2000-06-09 00:00:00;323.0;1;;1
2000-06-10 00:00:00;335.0;1;;1
2000-06-11 00:00:00;344.0;1;;1
2000-06-12 00:00:00;352.0;1;;1
2000-06-13 00:00:00;357.0;1;;1
2000-06-14 00:00:00;354.0;1;;1
2000-06-15 00:00:00;329.0;1;;1
2000-06-16 00:00:00;328.0;1;;1
2000-06-17 00:00:00;311.0;1;;1
2000-06-18 00:00:00;296.0;1;;1
2000-06-19 00:00:00;295.0;1;;1
2000-06-20 00:00:00;302.0;1;;1
2000-06-21 00:00:00;309.0;1;;1
2000-06-22 00:00:00;316.0;1;;1
2000-06-23 00:00:00;327.0;1;;1
2000-06-24 00:00:00;329.0;1;;1
2000-06-25 00:00:00;336.0;1;;1
2000-06-26 00:00:00;345.0;1;;1
2000-06-27 00:00:00;349.0;1;;1
2000-06-28 00:00:00;346.0;1;;1
2000-06-29 00:00:00;340.0;1;;1
2000-06-30 00:00:00;334.0;1;;1
2000-07-01 00:00:00;331.0;1;;1
2000-07-02 00:00:00;326.0;1;;1
2000-07-03 00:00:00;323.0;1;;1
2000-07-04 00:00:00;323.0;1;;1
2000-07-05 00:00:00;328.0;1;;1
2000-07-06 00:00:00;334.0;1;;1
2000-07-07 00:00:00;337.0;1;;1
2000-07-08 00:00:00;338.0;1;;1
2000-07-09 00:00:00;341.0;1;;1
2000-07-10 00:00:00;344.0;1;;1
2000-07-11 00:00:00;351.0;1;;1
2000-07-12 00:00:00;358.0;1;;1
2000-07-13 00:00:00;347.0;1;;1
2000-07-14 00:00:00;334.0;1;;1
2000-07-15 00:00:00;336.0;1;;1
2000-07-16 00:00:00;329.0;1;;1
2000-07-17 00:00:00;321.0;1;;1
2000-07-18 00:00:00;327.0;1;;1
2000-07-19 00:00:00;333.0;1;;1
2000-07-20 00:00:00;338.0;1;;1
2000-07-21 00:00:00;332.0;1;;1
2000-07-22 00:00:00;328.0;1;;1
2000-07-23 00:00:00;326.0;1;;1
2000-07-24 00:00:00;328.0;1;;1
2000-07-25 00:00:00;332.0;1;;1
2000-07-26 00:00:00;339.0;1;;1
2000-07-27 00:00:00;343.0;1;;1
2000-07-28 00:00:00;345.0;1;;1
2000-07-29 00:00:00;345.0;1;;1
2000-07-30 00:00:00;343.0;1;;1
2000-07-31 00:00:00;341.0;1;;1
2000-08-01 00:00:00;335.0;1;;1
2000-08-02 00:00:00;330.0;1;;1
2000-08-03 00:00:00;331.0;1;;1
2000-08-04 00:00:00;327.0;1;;1
2000-08-05 00:00:00;326.0;1;;1
2000-08-06 00:00:00;328.0;1;;1
2000-08-07 00:00:00;329.0;1;;1
2000-08-08 00:00:00;329.0;1;;1
2000-08-09 00:00:00;331.0;1;;1
2000-08-10 00:00:00;334.0;1;;1
2000-08-11 00:00:00;342.0;1;;1
2000-08-12 00:00:00;341.0;1;;1
2000-08-13 00:00:00;339.0;1;;1
2000-08-14 00:00:00;336.0;1;;1
2000-08-15 00:00:00;336.0;1;;1
2000-08-16 00:00:00;335.0;1;;1
2000-08-17 00:00:00;333.0;1;;1
2000-08-18 00:00:00;334.0;1;;1
2000-08-19 00:00:00;335.0;1;;1
2000-08-20 00:00:00;338.0;1;;1
2000-08-21 00:00:00;338.0;1;;1
2000-08-22 00:00:00;338.0;1;;1
2000-08-23 00:00:00;339.0;1;;1
2000-08-24 00:00:00;345.0;1;;1
2000-08-25 00:00:00;342.0;1;;1
2000-08-26 00:00:00;331.0;1;;1
2000-08-27 00:00:00;326.0;1;;1
2000-08-28 00:00:00;331.0;1;;1
2000-08-29 00:00:00;333.0;1;;1
2000-08-30 00:00:00;334.0;1;;1
2000-08-31 00:00:00;334.0;1;;1
2000-09-01 00:00:00;333.0;1;;1
2000-09-02 00:00:00;337.0;1;;1
2000-09-03 00:00:00;340.0;1;;1
2000-09-04 00:00:00;341.0;1;;1
2000-09-05 00:00:00;341.0;1;;1
2000-09-06 00:00:00;344.0;1;;1
2000-09-07 00:00:00;349.0;1;;1
2000-09-08 00:00:00;355.0;1;;1
2000-09-09 00:00:00;359.0;1;;1
2000-09-10 00:00:00;356.0;1;;1
2000-09-11 00:00:00;338.0;1;;1
2000-09-12 00:00:00;321.0;1;;1
2000-09-13 00:00:00;326.0;1;;1
2000-09-14 00:00:00;330.0;1;;1
2000-09-15 00:00:00;332.0;1;;1
2000-09-16 00:00:00;325.0;1;;1
2000-09-17 00:00:00;326.0;1;;1
2000-09-18 00:00:00;322.0;1;;1
2000-09-19 00:00:00;314.0;1;;1
2000-09-20 00:00:00;314.0;1;;1
2000-09-21 00:00:00;319.0;1;;1
2000-09-22 00:00:00;325.0;1;;1
2000-09-23 00:00:00;328.0;1;;1
2000-09-24 00:00:00;328.0;1;;1
2000-09-25 00:00:00;331.0;1;;1
2000-09-26 00:00:00;333.0;1;;1
2000-09-27 00:00:00;337.0;1;;1
2000-09-28 00:00:00;325.0;1;;1
2000-09-29 00:00:00;321.0;1;;1
2000-09-30 00:00:00;323.0;1;;1
2000-10-01 00:00:00;327.0;1;;1
2000-10-02 00:00:00;332.0;1;;1
2000-10-03 00:00:00;335.0;1;;1
2000-10-04 00:00:00;327.0;1;;1
2000-10-05 00:00:00;329.0;1;;1
2000-10-06 00:00:00;339.0;1;;1
2000-10-07 00:00:00;341.0;1;;1
2000-10-08 00:00:00;344.0;1;;1
2000-10-09 00:00:00;343.0;1;;1
2000-10-10 00:00:00;337.0;1;;1
2000-10-11 00:00:00;322.0;1;;1
2000-10-12 00:00:00;324.0;1;;1
2000-10-13 00:00:00;306.0;1;;1
2000-10-14 00:00:00;296.0;1;;1
2000-10-15 00:00:00;290.0;1;;1
2000-10-16 00:00:00;296.0;1;;1
2000-10-17 00:00:00;305.0;1;;1
2000-10-18 00:00:00;312.0;1;;1
2000-10-19 00:00:00;320.0;1;;1
2000-10-20 00:00:00;321.0;1;;1
2000-10-21 00:00:00;315.0;1;;1
2000-10-22 00:00:00;322.0;1;;1
2000-10-23 00:00:00;329.0;1;;1
2000-10-24 00:00:00;345.0;1;;1
2000-10-25 00:00:00;357.0;1;;1
2000-10-26 00:00:00;367.0;1;;1
2000-10-27 00:00:00;363.0;1;;1
2000-10-28 00:00:00;334.0;1;;1
2000-10-29 00:00:00;337.0;1;;1
2000-10-30 00:00:00;357.0;1;;1
2000-10-31 00:00:00;370.0;1;;1
2000-11-01 00:00:00;373.0;1;;1
2000-11-02 00:00:00;369.0;1;;1
2000-11-03 00:00:00;343.0;1;;1
2000-11-04 00:00:00;354.0;1;;1
2000-11-05 00:00:00;363.0;1;;1
2000-11-06 00:00:00;343.0;1;;1
2000-11-07 00:00:00;328.0;1;;1
2000-11-08 00:00:00;333.0;1;;1
2000-11-09 00:00:00;337.0;1;;1
2000-11-10 00:00:00;346.0;1;;1
2000-11-11 00:00:00;349.0;1;;1
2000-11-12 00:00:00;345.0;1;;1
2000-11-13 00:00:00;333.0;1;;1
2000-11-14 00:00:00;319.0;1;;1
2000-11-15 00:00:00;311.0;1;;1
2000-11-16 00:00:00;317.0;1;;1
2000-11-17 00:00:00;328.0;1;;1
2000-11-18 00:00:00;341.0;1;;1
2000-11-19 00:00:00;358.0;1;;1
2000-11-20 00:00:00;365.0;1;;1
2000-11-21 00:00:00;342.0;1;;1
2000-11-22 00:00:00;320.0;1;;1
2000-11-23 00:00:00;324.0;1;;1
2000-11-24 00:00:00;319.0;1;;1
2000-11-25 00:00:00;322.0;1;;1
2000-11-26 00:00:00;306.0;1;;1
2000-11-27 00:00:00;317.0;1;;1
2000-11-28 00:00:00;330.0;1;;1
2000-11-29 00:00:00;346.0;1;;1
2000-11-30 00:00:00;342.0;1;;1
2000-12-01 00:00:00;340.0;1;;1
2000-12-02 00:00:00;342.0;1;;1
2000-12-03 00:00:00;350.0;1;;1
2000-12-04 00:00:00;359.0;1;;1
2000-12-05 00:00:00;365.0;1;;1
2000-12-06 00:00:00;374.0;1;;1
2000-12-07 00:00:00;376.0;1;;1
2000-12-08 00:00:00;359.0;1;;1
2000-12-09 00:00:00;358.0;1;;1
2000-12-10 00:00:00;354.0;1;;1
2000-12-11 00:00:00;369.0;1;;1
2000-12-12 00:00:00;374.0;1;;1
2000-12-13 00:00:00;390.0;1;;1
2000-12-14 00:00:00;415.0;1;;1
2000-12-15 00:00:00;422.0;1;;1
2000-12-16 00:00:00;419.0;1;;1
2000-12-17 00:00:00;378.0;1;;1
2000-12-18 00:00:00;341.0;1;;1
2000-12-19 00:00:00;330.0;1;;1
2000-12-20 00:00:00;306.0;1;;1
2000-12-21 00:00:00;304.0;1;;1
2000-12-22 00:00:00;317.0;1;;1
2000-12-23 00:00:00;327.0;1;;1
2000-12-24 00:00:00;340.0;1;;1
2000-12-25 00:00:00;341.0;1;;1
2000-12-26 00:00:00;341.0;1;;1
2000-12-27 00:00:00;343.0;1;;1
2000-12-28 00:00:00;348.0;1;;1
2000-12-29 00:00:00;358.0;1;;1
2000-12-30 00:00:00;369.0;1;;1
2000-12-31 00:00:00;356.0;1;;1
2001-01-01 00:00:00;330.0;1;;1
2001-01-02 00:00:00;336.0;1;;1
2001-01-03 00:00:00;359.0;1;;1
2001-01-04 00:00:00;368.0;1;;1
2001-01-05 00:00:00;370.0;1;;1
2001-01-06 00:00:00;384.0;1;;1
2001-01-07 00:00:00;396.0;1;;1
2001-01-08 00:00:00;383.0;1;;1
2001-01-09 00:00:00;365.0;1;;1
2001-01-10 00:00:00;335.0;1;;1
2001-01-11 00:00:00;317.0;1;;1
2001-01-12 00:00:00;324.0;1;;1
2001-01-13 00:00:00;332.0;1;;1
2001-01-14 00:00:00;335.0;1;;1
2001-01-15 00:00:00;339.0;1;;1
2001-01-16 00:00:00;341.0;1;;1
2001-01-17 00:00:00;342.0;1;;1
2001-01-18 00:00:00;340.0;1;;1
2001-01-19 00:00:00;341.0;1;;1
2001-01-20 00:00:00;344.0;1;;1
2001-01-21 00:00:00;342.0;1;;1
2001-01-22 00:00:00;329.0;1;;1
2001-01-23 00:00:00;318.0;1;;1
2001-01-24 00:00:00;333.0;1;;1
2001-01-25 00:00:00;343.0;1;;1
2001-01-26 00:00:00;346.0;1;;1
2001-01-27 00:00:00;339.0;1;;1
2001-01-28 00:00:00;338.0;1;;1
2001-01-29 00:00:00;331.0;1;;1
2001-01-30 00:00:00;324.0;1;;1
2001-01-31 00:00:00;321.0;1;;1
2001-02-01 00:00:00;318.0;1;;1
2001-02-02 00:00:00;311.0;1;;1
2001-02-03 00:00:00;317.0;1;;1
2001-02-04 00:00:00;324.0;1;;1
2001-02-05 00:00:00;324.0;1;;1
2001-02-06 00:00:00;345.0;1;;1
2001-02-07 00:00:00;369.0;1;;1
2001-02-08 00:00:00;368.0;1;;1
2001-02-09 00:00:00;368.0;1;;1
2001-02-10 00:00:00;339.0;1;;1
2001-02-11 00:00:00;328.0;1;;1
2001-02-12 00:00:00;351.0;1;;1
2001-02-13 00:00:00;354.0;1;;1
2001-02-14 00:00:00;335.0;1;;1
2001-02-15 00:00:00;338.0;1;;1
2001-02-16 00:00:00;348.0;1;;1
2001-02-17 00:00:00;340.0;1;;1
2001-02-18 00:00:00;349.0;1;;1
2001-02-19 00:00:00;354.0;1;;1
2001-02-20 00:00:00;357.0;1;;1
2001-02-21 00:00:00;362.0;1;;1
2001-02-22 00:00:00;372.0;1;;1
2001-02-23 00:00:00;355.0;1;;1
2001-02-24 00:00:00;322.0;1;;1
2001-02-25 00:00:00;325.0;1;;1
2001-02-26 00:00:00;324.0;1;;1
2001-02-27 00:00:00;320.0;1;;1
2001-02-28 00:00:00;313.0;1;;1
2001-03-01 00:00:00;305.0;1;;1
2001-03-02 00:00:00;313.0;1;;1
2001-03-03 00:00:00;325.0;1;;1
2001-03-04 00:00:00;332.0;1;;1
2001-03-05 00:00:00;343.0;1;;1
2001-03-06 00:00:00;351.0;1;;1
2001-03-07 00:00:00;349.0;1;;1
2001-03-08 00:00:00;349.0;1;;1
2001-03-09 00:00:00;347.0;1;;1
2001-03-10 00:00:00;344.0;1;;1
2001-03-11 00:00:00;339.0;1;;1
2001-03-12 00:00:00;346.0;1;;1
2001-03-13 00:00:00;352.0;1;;1
2001-03-14 00:00:00;358.0;1;;1
2001-03-15 00:00:00;342.0;1;;1
2001-03-16 00:00:00;337.0;1;;1
2001-03-17 00:00:00;319.0;1;;1
2001-03-18 00:00:00;308.0;1;;1
2001-03-19 00:00:00;302.0;1;;1
2001-03-20 00:00:00;320.0;1;;1
2001-03-21 00:00:00;323.0;1;;1
2001-03-22 00:00:00;312.0;1;;1
2001-03-23 00:00:00;311.0;1;;1
2001-03-24 00:00:00;312.0;1;;1
2001-03-25 00:00:00;322.0;1;;1
2001-03-26 00:00:00;318.0;1;;1
2001-03-27 00:00:00;315.0;1;;1
2001-03-28 00:00:00;308.0;1;;1
2001-03-29 00:00:00;314.0;1;;1
2001-03-30 00:00:00;329.0;1;;1
2001-03-31 00:00:00;333.0;1;;1
2001-04-01 00:00:00;342.0;1;;1
2001-04-02 00:00:00;337.0;1;;1
2001-04-03 00:00:00;332.0;1;;1
2001-04-04 00:00:00;346.0;1;;1
2001-04-05 00:00:00;364.0;1;;1
2001-04-06 00:00:00;344.0;1;;1
2001-04-07 00:00:00;327.0;1;;1
2001-04-08 00:00:00;317.0;1;;1
2001-04-09 00:00:00;309.0;1;;1
2001-04-10 00:00:00;305.0;1;;1
2001-04-11 00:00:00;316.0;1;;1
2001-04-12 00:00:00;332.0;1;;1
2001-04-13 00:00:00;332.0;1;;1
2001-04-14 00:00:00;332.0;1;;1
2001-04-15 00:00:00;341.0;1;;1
2001-04-16 00:00:00;357.0;1;;1
2001-04-17 00:00:00;364.0;1;;1
2001-04-18 00:00:00;374.0;1;;1
2001-04-19 00:00:00;381.0;1;;1
2001-04-20 00:00:00;355.0;1;;1
2001-04-21 00:00:00;321.0;1;;1
2001-04-22 00:00:00;310.0;1;;1
2001-04-23 00:00:00;316.0;1;;1
2001-04-24 00:00:00;325.0;1;;1
2001-04-25 00:00:00;331.0;1;;1
2001-04-26 00:00:00;341.0;1;;1
2001-04-27 00:00:00;343.0;1;;1
2001-04-28 00:00:00;342.0;1;;1
2001-04-29 00:00:00;341.0;1;;1
2001-04-30 00:00:00;335.0;1;;1
2001-05-01 00:00:00;332.0;1;;1
2001-05-02 00:00:00;327.0;1;;1
2001-05-03 00:00:00;325.0;1;;1
2001-05-04 00:00:00;330.0;1;;1
2001-05-05 00:00:00;326.0;1;;1
2001-05-06 00:00:00;320.0;1;;1
2001-05-07 00:00:00;321.0;1;;1
2001-05-08 00:00:00;322.0;1;;1
2001-05-09 00:00:00;329.0;1;;1
2001-05-10 00:00:00;337.0;1;;1
2001-05-11 00:00:00;339.0;1;;1
2001-05-12 00:00:00;339.0;1;;1
2001-05-13 00:00:00;339.0;1;;1
2001-05-14 00:00:00;342.0;1;;1
2001-05-15 00:00:00;348.0;1;;1
2001-05-16 00:00:00;352.0;1;;1
2001-05-17 00:00:00;361.0;1;;1
2001-05-18 00:00:00;372.0;1;;1
2001-05-19 00:00:00;363.0;1;;1
2001-05-20 00:00:00;332.0;1;;1
2001-05-21 00:00:00;315.0;1;;1
2001-05-22 00:00:00;308.0;1;;1
2001-05-23 00:00:00;306.0;1;;1
2001-05-24 00:00:00;315.0;1;;1
2001-05-25 00:00:00;320.0;1;;1
2001-05-26 00:00:00;325.0;1;;1
2001-05-27 00:00:00;330.0;1;;1
2001-05-28 00:00:00;334.0;1;;1
2001-05-29 00:00:00;341.0;1;;1
2001-05-30 00:00:00;336.0;1;;1
2001-05-31 00:00:00;329.0;1;;1
2001-06-01 00:00:00;337.0;1;;1
2001-06-02 00:00:00;336.0;1;;1
2001-06-03 00:00:00;345.0;1;;1
2001-06-04 00:00:00;339.0;1;;1
2001-06-05 00:00:00;315.0;1;;1
2001-06-06 00:00:00;307.0;1;;1
2001-06-07 00:00:00;326.0;1;;1
2001-06-08 00:00:00;326.0;1;;1
2001-06-09 00:00:00;330.0;1;;1
2001-06-10 00:00:00;336.0;1;;1
2001-06-11 00:00:00;339.0;1;;1
2001-06-12 00:00:00;345.0;1;;1
2001-06-13 00:00:00;336.0;1;;1
2001-06-14 00:00:00;338.0;1;;1
2001-06-15 00:00:00;336.0;1;;1
2001-06-16 00:00:00;338.0;1;;1
2001-06-17 00:00:00;337.0;1;;1
2001-06-18 00:00:00;343.0;1;;1
2001-06-19 00:00:00;340.0;1;;1
2001-06-20 00:00:00;335.0;1;;1
2001-06-21 00:00:00;336.0;1;;1
2001-06-22 00:00:00;337.0;1;;1
2001-06-23 00:00:00;337.0;1;;1
2001-06-24 00:00:00;329.0;1;;1
2001-06-25 00:00:00;326.0;1;;1
2001-06-26 00:00:00;324.0;1;;1
2001-06-27 00:00:00;330.0;1;;1
2001-06-28 00:00:00;335.0;1;;1
2001-06-29 00:00:00;337.0;1;;1
2001-06-30 00:00:00;339.0;1;;1
2001-07-01 00:00:00;344.0;1;;1
2001-07-02 00:00:00;344.0;1;;1
2001-07-03 00:00:00;346.0;1;;1
2001-07-04 00:00:00;342.0;1;;1
2001-07-05 00:00:00;340.0;1;;1
2001-07-06 00:00:00;339.0;1;;1
2001-07-07 00:00:00;337.0;1;;1
2001-07-08 00:00:00;341.0;1;;1
2001-07-09 00:00:00;346.0;1;;1
2001-07-10 00:00:00;348.0;1;;1
2001-07-11 00:00:00;357.0;1;;1
2001-07-12 00:00:00;367.0;1;;1
2001-07-13 00:00:00;364.0;1;;1
2001-07-14 00:00:00;352.0;1;;1
2001-07-15 00:00:00;347.0;1;;1
2001-07-16 00:00:00;340.0;1;;1
2001-07-17 00:00:00;340.0;1;;1
2001-07-18 00:00:00;346.0;1;;1
2001-07-19 00:00:00;351.0;1;;1
2001-07-20 00:00:00;354.0;1;;1
2001-07-21 00:00:00;355.0;1;;1
2001-07-22 00:00:00;354.0;1;;1
2001-07-23 00:00:00;350.0;1;;1
2001-07-24 00:00:00;350.0;1;;1
2001-07-25 00:00:00;350.0;1;;1
2001-07-26 00:00:00;351.0;1;;1
2001-07-27 00:00:00;348.0;1;;1
2001-07-28 00:00:00;349.0;1;;1
2001-07-29 00:00:00;350.0;1;;1
2001-07-30 00:00:00;353.0;1;;1
2001-07-31 00:00:00;350.0;1;;1
2001-08-01 00:00:00;346.0;1;;1
2001-08-02 00:00:00;341.0;1;;1
2001-08-03 00:00:00;340.0;1;;1
2001-08-04 00:00:00;343.0;1;;1
2001-08-05 00:00:00;345.0;1;;1
2001-08-06 00:00:00;346.0;1;;1
2001-08-07 00:00:00;352.0;1;;1
2001-08-08 00:00:00;361.0;1;;1
2001-08-09 00:00:00;372.0;1;;1
2001-08-10 00:00:00;342.0;1;;1
2001-08-11 00:00:00;335.0;1;;1
2001-08-12 00:00:00;336.0;1;;1
2001-08-13 00:00:00;356.0;1;;1
2001-08-14 00:00:00;366.0;1;;1
2001-08-15 00:00:00;346.0;1;;1
2001-08-16 00:00:00;342.0;1;;1
2001-08-17 00:00:00;341.0;1;;1
2001-08-18 00:00:00;313.0;1;;1
2001-08-19 00:00:00;295.0;1;;1
2001-08-20 00:00:00;306.0;1;;1
2001-08-21 00:00:00;317.0;1;;1
2001-08-22 00:00:00;325.0;1;;1
2001-08-23 00:00:00;332.0;1;;1
2001-08-24 00:00:00;339.0;1;;1
2001-08-25 00:00:00;343.0;1;;1
2001-08-26 00:00:00;348.0;1;;1
2001-08-27 00:00:00;358.0;1;;1
2001-08-28 00:00:00;366.0;1;;1
2001-08-29 00:00:00;355.0;1;;1
2001-08-30 00:00:00;338.0;1;;1
2001-08-31 00:00:00;341.0;1;;1
2001-09-01 00:00:00;347.0;1;;1
2001-09-02 00:00:00;351.0;1;;1
2001-09-03 00:00:00;350.0;1;;1
2001-09-04 00:00:00;346.0;1;;1
2001-09-05 00:00:00;348.0;1;;1
2001-09-06 00:00:00;322.0;1;;1
2001-09-07 00:00:00;329.0;1;;1
2001-09-08 00:00:00;348.0;1;;1
2001-09-09 00:00:00;371.0;1;;1
2001-09-10 00:00:00;387.0;1;;1
2001-09-11 00:00:00;391.0;1;;1
2001-09-12 00:00:00;371.0;1;;1
2001-09-13 00:00:00;373.0;1;;1
2001-09-14 00:00:00;377.0;1;;1
2001-09-15 00:00:00;370.0;1;;1
2001-09-16 00:00:00;365.0;1;;1
2001-09-17 00:00:00;342.0;1;;1
2001-09-18 00:00:00;328.0;1;;1
2001-09-19 00:00:00;320.0;1;;1
2001-09-20 00:00:00;312.0;1;;1
2001-09-21 00:00:00;331.0;1;;1
2001-09-22 00:00:00;357.0;1;;1
2001-09-23 00:00:00;342.0;1;;1
2001-09-24 00:00:00;325.0;1;;1
2001-09-25 00:00:00;324.0;1;;1
2001-09-26 00:00:00;351.0;1;;1
2001-09-27 00:00:00;371.0;1;;1
2001-09-28 00:00:00;374.0;1;;1
2001-09-29 00:00:00;351.0;1;;1
2001-09-30 00:00:00;335.0;1;;1
2001-10-01 00:00:00;345.0;1;;1
2001-10-02 00:00:00;365.0;1;;1
2001-10-03 00:00:00;371.0;1;;1
2001-10-04 00:00:00;387.0;1;;1
2001-10-05 00:00:00;363.0;1;;1
2001-10-06 00:00:00;331.0;1;;1
2001-10-07 00:00:00;330.0;1;;1
2001-10-08 00:00:00;339.0;1;;1
2001-10-09 00:00:00;357.0;1;;1
2001-10-10 00:00:00;379.0;1;;1
2001-10-11 00:00:00;389.0;1;;1
2001-10-12 00:00:00;387.0;1;;1
2001-10-13 00:00:00;377.0;1;;1
2001-10-14 00:00:00;348.0;1;;1
2001-10-15 00:00:00;325.0;1;;1
2001-10-16 00:00:00;318.0;1;;1
2001-10-17 00:00:00;309.0;1;;1
2001-10-18 00:00:00;301.0;1;;1
2001-10-19 00:00:00;310.0;1;;1
2001-10-20 00:00:00;308.0;1;;1
2001-10-21 00:00:00;304.0;1;;1
2001-10-22 00:00:00;314.0;1;;1
2001-10-23 00:00:00;319.0;1;;1
2001-10-24 00:00:00;322.0;1;;1
2001-10-25 00:00:00;336.0;1;;1
2001-10-26 00:00:00;349.0;1;;1
2001-10-27 00:00:00;361.0;1;;1
2001-10-28 00:00:00;372.0;1;;1
2001-10-29 00:00:00;382.0;1;;1
2001-10-30 00:00:00;392.0;1;;1
2001-10-31 00:00:00;401.0;1;;1
2001-11-01 00:00:00;399.0;1;;1
2001-11-02 00:00:00;353.0;1;;1
2001-11-03 00:00:00;339.0;1;;1
2001-11-04 00:00:00;349.0;1;;1
2001-11-05 00:00:00;359.0;1;;1
2001-11-06 00:00:00;366.0;1;;1
2001-11-07 00:00:00;387.0;1;;1
2001-11-08 00:00:00;386.0;1;;1
2001-11-09 00:00:00;387.0;1;;1
2001-11-10 00:00:00;371.0;1;;1
2001-11-11 00:00:00;375.0;1;;1
2001-11-12 00:00:00;359.0;1;;1
2001-11-13 00:00:00;342.0;1;;1
2001-11-14 00:00:00;327.0;1;;1
2001-11-15 00:00:00;318.0;1;;1
2001-11-16 00:00:00;319.0;1;;1
2001-11-17 00:00:00;316.0;1;;1
2001-11-18 00:00:00;317.0;1;;1
2001-11-19 00:00:00;319.0;1;;1
2001-11-20 00:00:00;322.0;1;;1
2001-11-21 00:00:00;339.0;1;;1
2001-11-22 00:00:00;363.0;1;;1
2001-11-23 00:00:00;379.0;1;;1
2001-11-24 00:00:00;371.0;1;;1
2001-11-25 00:00:00;368.0;1;;1
2001-11-26 00:00:00;374.0;1;;1
2001-11-27 00:00:00;360.0;1;;1
2001-11-28 00:00:00;360.0;1;;1
2001-11-29 00:00:00;365.0;1;;1
2001-11-30 00:00:00;348.0;1;;1
2001-12-01 00:00:00;327.0;1;;1
2001-12-02 00:00:00;341.0;1;;1
2001-12-03 00:00:00;326.0;1;;1
2001-12-04 00:00:00;320.0;1;;1
2001-12-05 00:00:00;346.0;1;;1
2001-12-06 00:00:00;345.0;1;;1
2001-12-07 00:00:00;333.0;1;;1
2001-12-08 00:00:00;319.0;1;;1
2001-12-09 00:00:00;325.0;1;;1
2001-12-10 00:00:00;329.0;1;;1
2001-12-11 00:00:00;330.0;1;;1
2001-12-12 00:00:00;330.0;1;;1
2001-12-13 00:00:00;323.0;1;;1
2001-12-14 00:00:00;318.0;1;;1
2001-12-15 00:00:00;326.0;1;;1
2001-12-16 00:00:00;338.0;1;;1
2001-12-17 00:00:00;335.0;1;;1
2001-12-18 00:00:00;330.0;1;;1
2001-12-19 00:00:00;346.0;1;;1
2001-12-20 00:00:00;352.0;1;;1
2001-12-21 00:00:00;371.0;1;;1
2001-12-22 00:00:00;388.0;1;;1
2001-12-23 00:00:00;374.0;1;;1
2001-12-24 00:00:00;394.0;1;;1
2001-12-25 00:00:00;425.0;1;;1
2001-12-26 00:00:00;445.0;1;;1
2001-12-27 00:00:00;425.0;1;;1
2001-12-28 00:00:00;408.0;1;;1
2001-12-29 00:00:00;422.0;1;;1
2001-12-30 00:00:00;384.0;1;;1
2001-12-31 00:00:00;353.0;1;;1
2002-01-01 00:00:00;349.0;1;;1
2002-01-02 00:00:00;363.0;1;;1
2002-01-03 00:00:00;335.0;1;;1
2002-01-04 00:00:00;322.0;1;;1
2002-01-05 00:00:00;328.0;1;;1
2002-01-06 00:00:00;338.0;1;;1
2002-01-07 00:00:00;337.0;1;;1
2002-01-08 00:00:00;339.0;1;;1
2002-01-09 00:00:00;338.0;1;;1
2002-01-10 00:00:00;332.0;1;;1
2002-01-11 00:00:00;333.0;1;;1
2002-01-12 00:00:00;339.0;1;;1
2002-01-13 00:00:00;336.0;1;;1
2002-01-14 00:00:00;337.0;1;;1
2002-01-15 00:00:00;338.0;1;;1
2002-01-16 00:00:00;345.0;1;;1
2002-01-17 00:00:00;346.0;1;;1